Lid_Strength_Index
8 7 8 10 12 10 12 12 14 14 12 9 8 9 7 7 6 6 5 4 4 4 3 3 3 3 2 2 2 2 1 1
8 8 8 9 8 13 14 17 18 15 15 16 11 9 8 7 7 6 5 4 4 4 3 3 2 2 2 2 2 2 1 1
8 10 10 10 12 12 13 13 16 16 15 10 10 8 8 7 6 6 5 5 4 4 3 3 2 2 2 2 2 2 2 1
11 8 7 9 11 11 13 14 13 14 14 8 8 7 7 7 6 5 5 4 4 4 3 3 3 3 3 2 2 2 1 1
12 10 8 10 9 10 10 11 15 16 14 8 7 8 7 7 6 6 5 5 4 4 4 3 3 3 3 2 2 2 2 2
14 12 10 11 9 9 11 14 14 13 12 11 9 8 8 8 7 5 5 5 5 5 4 4 3 3 3 2 2 2 2 2
9 8 8 10 10 9 11 11 14 12 11 9 8 8 8 7 6 6 5 5 5 5 5 4 4 3 3 2 2 2 2 2
11 9 8 10 9 9 9 10 10 10 11 7 7 7 7 7 6 6 6 5 5 4 4 4 4 3 3 3 2 2 2 2
15 10 10 13 10 9 9 9 10 13 10 7 7 7 7 7 6 6 5 5 5 4 4 4 3 3 3 3 2 2 2 2
14 13 17 11 7 7 8 9 8 8 7 7 7 6 6 6 6 6 5 5 4 4 4 3 3 3 2 2 2 2 3 2
14 14 12 10 8 8 9 10 7 8 8 7 6 6 7 5 5 5 5 5 5 3 3 3 3 2 2 3 2 3 3 3
13 15 16 11 8 6 7 12 8 7 7 8 7 11 9 5 4 4 4 4 4 3 3 3 3 2 3 3 3 3 3 2
14 15 12 9 7 6 14 14 8 7 7 7 9 8 6 5 4 4 4 3 3 3 3 3 2 2 3 3 3 2 2 3
13 15 16 8 8 12 10 7 7 7 6 7 7 6 6 5 5 4 4 4 3 5 3 3 2 3 3 4 3 3 4 4
12 13 8 7 8 6 6 7 7 7 6 5 6 6 6 6 5 4 5 4 3 3 4 3 3 3 4 4 4 3 4 5
10 9 8 6 6 5 5 6 5 5 5 5 5 5 5 6 6 5 4 4 3 4 4 4 4 4 4 4 3 4 4 2
10 8 7 7 6 5 5 4 5 4 4 5 4 5 5 5 4 4 4 4 4 4 4 4 3 4 4 3 2 2 2 2
12 8 8 7 5 4 5 5 4 4 4 4 4 5 4 5 4 4 4 4 4 4 4 3 4 4 3 2 2 2 3 3
8 6 5 5 4 4 5 4 4 4 4 4 3 4 4 4 4 4 4 4 4 4 3 3 3 3 2 2 2 2 3 3